Location: Altmatt
(47.1333°N, 8.7000°E)
Time: 16:27:08
(UTC+00:00)

Lacrosse 5 - Pass Details

Date: 13 July 2020
Orbit: 717 x 720 km, 57.0° (Epoch: 09 August)

Event Time Altitude Azimuth Distance (km) Brightness Sun altitude
Exits shadow 22:31:32 23° 108° (ESE) 1,512 3.2 -19.9°
Drops below altitude 10° 22:34:37 10° 72° (ENE) 2,203 4.4 -20.1°
Sets 22:37:22 0° 59° (ENE) 3,128 5.4 -20.2°
